Simultaneous Nadir Overpasses (SNOs) Predictions

Prediction of SNOs between LANDSAT-8 and NOAA-19 Satellite Orbit:

Table of predicted SNOs for the next 14.0 days since TLE Epoch: 4/6/2019
Index Date (LANDSAT-8) Time (LANDSAT-8) Lat,Lon (LANDSAT-8) SZA (LANDSAT-8 ) Date (NOAA-19) Time (NOAA-19) Lat,Lon (NOAA-19) SZA (NOAA-19 ) Distance(km) Time Diff (sec)
1 04/08/2019 07:56:52 -78.65,-100.72 107.97 04/08/2019 07:56:49 -78.63,-100.78 108.01 3.51 3
2 04/10/2019 13:30:35 78.64, -4.23 71.19 04/10/2019 13:30:21 78.63, -4.10 71.19 3.05 14
3 04/10/2019 14:20:03 -78.61, 163.25 108.86 04/10/2019 14:21:16 -78.60, 163.37 108.84 2.84 73
4 04/12/2019 19:04:19 -78.64, 92.36 109.61 04/12/2019 19:03:45 -78.68, 92.30 109.59 3.82 34
5 04/12/2019 19:53:45 78.63,-100.06 70.36 04/12/2019 19:54:49 78.63,-100.13 70.37 1.58 64
6 04/15/2019 00:38:01 78.66,-170.97 69.62 04/15/2019 00:37:17 78.66,-170.90 69.61 1.62 44
7 04/15/2019 01:27:29 -78.64, -3.48 110.43 04/15/2019 01:28:12 -78.65, -3.56 110.41 2.64 43
8 04/17/2019 06:11:45 -78.67, -74.38 111.16 04/17/2019 06:10:40 -78.70, -74.39 111.15 3.12 65
9 04/17/2019 07:01:11 78.65, 93.18 68.81 04/17/2019 07:01:44 78.63, 93.28 68.81 3.22 33
10 04/19/2019 11:45:27 78.68, 22.25 68.09 04/19/2019 11:44:14 78.74, 21.99 68.11 8.76 73




NCC Satellite Simultaneous Nadir Overpasses (SNOs) Prediction Service
